www.pogodaiklimat.ru

АРХИВ ПОГОДЫ в Провиденсе

Время (UTC), дата Ветер
(напр.,м/с)
 
Видим.   Явления Облачность Т
(С)
Тd
(С)
f
(%)
Тe
(С)
Тes
(С)
Комфортность

P
(гПа)

Po
(гПа)
Тmin
(С)
Tmax
(С)
R
(мм)
SD
(см)
20:51 24.03 ЮЗ  16 км    8/0 4500 м
[средняя верхняя] 
+10.0  -7.2  29  +7  +7    1015.0  1013.0         
21:51 24.03 ЮЗ  5
{8} 
16 км    8/0 4500 м
[средняя верхняя] 
+9.4  -5.6  34  +6  +7    1015.2  1013.3         
22:51 24.03 ЮЗ  16 км    8/0 3900 м
[средняя верхняя] 
+8.9  -4.4  39  +6  +6    1015.5  1013.7  +8.9  +13.9     
23:51 24.03 ЮЗ  16 км    8/0 3600 м
[средняя верхняя] 
+8.3  -3.9  42  +5  +5    1015.8  1014.0         
00:51 25.03 З  16 км    8/0 3300 м
[средняя верхняя] 
+7.8  -3.3  45  +5  +5    1015.7  1014.0         
01:51 25.03 З  16 км    10/0 3000 м
[средняя] 
+8.9  -2.2  46  +7  +7    1015.7  1013.7         
02:51 25.03 З  16 км    10/0 2550 м
[средняя] 
+8.3  -1.7  49  +6  +6    1015.5  1013.7         
03:51 25.03 З  16 км    8/0 2550 м
[средняя] 
+8.3  -2.2  48  +6  +6    1015.7  1013.7         
04:51 25.03 ЮЗ  16 км    ясно  +6.7  -1.7  55  +4  +4    1015.6  1013.7  +6.7  +8.9     
05:51 25.03 Ю  16 км    2/0 3600 м
[средняя] 
+6.7  -1.7  55  +5  +5    1015.2  1013.3         
06:51 25.03   16 км    8/0 3300 м
[средняя] 
+6.7  -1.7  55  +6  +6    1015.2  1013.3         
07:51 25.03   16 км    ясно  +5.0  -1.1  65  +4  +4    1015.2  1013.3         
08:51 25.03 З  16 км    8/0 4500 м
[средняя] 
+5.0  -1.7  62  +3  +3    1015.5  1013.7         
09:51 25.03 СЗ  16 км    8/0 3300 м
[средняя] 
+6.7  -2.8  51  +6  +6    1016.1  1014.3         
10:51 25.03 СЗ  16 км    10/0 3000 м
[средняя верхняя] 
+7.8  -2.8  47  +5  +5    1016.6  1014.7  +5.0  +8.3     
11:51 25.03 СЗ  16 км    10/0 2400 м
[средняя] 
+8.3  -2.8  45  +5  +5    1017.1  1015.3         
12:51 25.03 С  16 км    10/0 2700 м
[средняя] 
+6.1  -2.8  53  +1  +1    1017.7  1015.7         
13:51 25.03 СВ  16 км    10/0 2550 м
[средняя верхняя] 
+6.1  -2.2  55  +2  +4    1018.3  1016.4         
15:51 25.03 нст  16 км    8/2 1350 м
[средняя верхняя] 
+7.2  -3.3  47  +6  +13    1018.4  1016.4         
16:51 25.03 В  16 км    8/8 1470 м
[средняя верхняя] 
+7.8  -2.8  47  +6  +8    1018.0  1016.0  +6.1  +8.9     
17:51 25.03 нст  16 км    8/0 3300 м
[средняя верхняя] 
+9.4  -2.2  44  +9  +16    1016.8  1015.0         
18:51 25.03 Ю  16 км    8/2 1440 м
[средняя верхняя] 
+9.4  -2.2  44  +7  +10    1016.1  1014.3         
19:51 25.03 Ю  16 км    8/2 1440 м
[средняя верхняя] 
+10.0  -3.3  39  +8  +9    1016.0  1014.0         
20:51 25.03 ЮВ  16 км    8/2 1440 м
[средняя верхняя] 
+7.2  0.0  60  +4  +4    1016.4  1014.7         
21:51 25.03 Ю  16 км    8/0 3300 м
[средняя верхняя] 
+6.7  -0.6  60  +3  +3    1016.6  1014.7         
22:51 25.03 ЮВ  16 км    10/0 3300 м
[средняя верхняя] 
+5.6  0.0  67  +2  +2    1017.3  1015.3  +5.6  +10.6     
23:51 25.03 Ю  16 км    10/2 390 м
[средняя] 
+4.4  +1.7  83  -1  -1    1018.3  1016.4         
00:51 26.03 Ю  16 км    10/2 390 м
[средняя] 
+4.4  +1.7  83  +1  +1    1018.6  1016.7         
01:51 26.03 Ю  16 км    10/5 390 м
[средняя верхняя] 
+3.3  +1.7  89  +1  +1    1018.7  1016.7         
02:51 26.03   16 км    10/2 330 м
[средняя верхняя] 
+3.9  +1.7  86  +3  +3    1018.6  1016.7         
03:51 26.03 С  16 км    ясно  +2.2  -10.0  40  -2  -2    1019.3  1017.4         
04:51 26.03 С  16 км    ясно  +1.1  -11.7  38  -3  -3    1019.9  1018.0  +0.6  +5.6     
05:51 26.03 С  16 км    ясно  +0.6  -12.2  38  -4  -4    1019.9  1018.0         
06:51 26.03 С  16 км    ясно  0.0  -12.2  39  -5  -5    1020.0  1018.0         
07:51 26.03 С  16 км    ясно  0.0  -12.2  39  -6  -6    1020.8  1019.1         
08:51 26.03 С  16 км    5/5 1410 м  0.0  -12.8  37  -6  -6    1021.4  1019.4         
09:51 26.03 С  16 км    8/5 1650 м
[верхняя] 
0.0  -14.4  33  -6  -6    1022.4  1020.4         
10:51 26.03 С  16 км    2/2 1950 м
[верхняя] 
+1.7  -15.0  28  -3  -3    1023.0  1021.1  -0.6  +1.7     
11:51 26.03 С  16 км    2/2 300 м
[средняя верхняя] 
+2.8  -15.6  24  -3  -3    1023.6  1021.8         
12:51 26.03 С  16 км    2/2 300 м
[верхняя] 
+3.9  -16.1  22  -1  -1    1024.3  1022.4         
13:51 26.03 С  16 км    2/2 300 м
[верхняя] 
+5.0  -16.1  20  -0  -0    1024.5  1022.8         
14:51 26.03 С  6
{9} 
16 км    2/2 300 м
[верхняя] 
+5.0  -16.1  20  +1  +3    1024.5  1022.8         
15:51 26.03 С  6
{10} 
16 км    2/2 300 м
[верхняя] 
+5.6  -16.1  19  +1  +4    1024.5  1022.8         
16:51 26.03 С  4
{8} 
16 км    2/2 300 м
[верхняя] 
+6.7  -15.6  19  +4  +10    1024.2  1022.1  +1.7  +6.7     
17:51 26.03 С  4
{8} 
16 км    2/0 7500 м
[верхняя] 
+7.2  -16.1  17  +5  +11    1023.3  1021.4         
18:51 26.03 С  16 км    2/0 7500 м
[верхняя] 
+7.8  -15.6  17  +4  +6    1023.0  1021.1         
19:51 26.03 С  16 км    2/0 7500 м
[верхняя] 
+7.2  -16.1  17  +3  +5    1023.1  1021.1         
20:51 26.03 С  16 км    2/0 7500 м
[верхняя] 
+6.7  -16.1  18  +3  +3    1023.8  1021.8         

 

Местоположение метеостанции Theodore Francis Green State Airport: широта 41.7225 долгота -71.4325 высота над уровнем моря 15 м.

В архиве по умолчанию представлена погода в Провиденсе за последние 1-2 суток. Обновление информации о фактической погоде в базе происходит ежечасно! Архивные данные за месяц целиком и за предыдущие месяцы Вы можете получить, выбрав интересующий диапазон дат из раскрывающегося списка и нажав кнопку "Ввод!".

Внимание! Архив погоды МЕТАР в базе сайта в настоящее время начинается c 1 января 2011 г. Нет смысла пытаться выбрать более раннюю дату.

Внимание! Время в таблицах - всемирное. Для получения местного времени необходимо прибавить поправку, которая в Провиденсе равна -5 ч.

Ветер - указаны скорость ветра в м/с и направление, откуда дует ветер: С - северный, СВ - северо-восточный, В - восточный, ЮВ - юго-восточный, Ю - южный, ЮЗ - юго-западный, З - западный, СЗ - северо-западный.
Видимость - горизонтальная дальность видимости в метрах или километрах. При видимости от 1 до 10 км при отсутствии осадков обычно наблюдается дымка, при ухудшении видимости до 1 км и менее - туман. В сухую погоду видимость может ухудшаться дымом, пылью или мглою.
Атмосферные явления - указаны явления, наблюдавшиеся в указанный момент времени.
Облачность - указаны через наклонную черту верхняя и нижняя облачность в баллах и высота нижней границы облаков в метрах. Внимание: облачность, как и прочие метеорологические величины в США измеряются автоматическими метеостанциями. Указанные значения в баллах носят условный характер и показывают процент времени, в течение которого, в среднем, лазерный луч высотомера отражался от облаков обратно.
T - Температура воздуха - температура, измеренная на высоте 2 м над землей.
Td - Температура точки росы - температура, при понижении до которой содержащийся в воздухе водяной пар достигнет насыщения.
f - Относительная влажность воздуха - влажноcть воздуха, измеренная на высоте 2 м над землей.
Te - Эффективная температура - температура, которую ощущает одетый по сезону человек в тени. Характеристика душности погоды. При расчете учитывается влияние влажности воздуха и скорости ветра на теплоощущения человека.
Tes - Эффективная температура на солнце - температура, которую ощущает человек, с поправкой на солнечный нагрев. Характеристика знойности погоды. Зависит от высоты солнца над горизонтом, облачности и скорости ветра. Ночью, в пасмурную погоду, а также при ветре 12 м/с и более поправка равна нулю.
P - Атмосферное давление - приведенное к уровню моря атмосферное давление.
Po - Атмосферное давление - измеренное на уровне метеостанции атмосферное давление.
Tmin - Минимальная температура - минимум температуры воздуха на высоте 2 м над землей.
Tmax - Максимальная температура - максимум температуры воздуха на высоте 2 м над землей.
R - Количество осадков - Количество выпавших осадков за 3 или 6 часов, мм.
SD - Снежный покров - Высота снежного покрова, см.